Starlink 11136

operational
NORAD ID: 60407 Int'l Des: 2024-141 Owner: SPXS Country: US Constellation: starlink
LEOCIRCULAR

Über Starlink 11136

Beschreibung wird geladen...

Live-Position

3D-Globus wird geladen...

Nächste Überflüge

Höhenverlauf

Altitude vs Time

uPlot chart will show altitude changes over time

Zweizeiliger Elementsatz

1 60407U 24141K 25350.68075008 .00001540 00000-0 17564-4 0 9995
2 60407 53.1604 135.5937 0001201 100.2980 259.8174 15.69711600 78653
Epoch: 16. Dez. 2025 • Age: 23 hours

Aktueller Status

Höhe 366.4 km
Geschwindigkeit 7.69 km/s
Subsatellitenpunkt -21.82°S, 159.92°E
Startdatum 10. Aug. 2024
Alter 1.3 years
Typ internet

Technische Details

Klassifizierung Payload
Masse 960.00 kg
Trockenmasse 910.00 kg
Gesamtmasse 960.00 kg
Länge 0.30 m
Durchmesser 4.10 m
Spannweite 29.00 m
Form Box + pan
Hersteller SPXS
Bus-Typ Starlink V2MD
Phasenstatus In Orbit
Besitzer/Staat SPXS/US

Große Konstellationen

Loading constellations...